Location: Stokes Fall Starparty
(41.2298°N, 74.7506°W)
Time: 03:52:43
(UTC-04:00)

Daily predictions for brighter satellites

Satellite Brightness Start Highest point End
(mag) Time Altitude Azimuth Time Altitude Azimuth Time Altitude Azimuth
Cosmos 2315 Rocket 4.5 00:13:51 57° N 00:13:51 57° N 00:18:43 10° N
Cosmos 2333 Rocket 3.7 00:21:21 30° WNW 00:21:44 31° NW 00:26:49 10° N
Cosmos 2237 Rocket 3.4 00:26:24 36° NW 00:26:24 36° NW 00:31:09 10° N
ATLAS CENTAUR R/B 4.5 00:31:51 11° NNE 00:31:51 11° NNE 00:31:59 10° NNE
Cosmos 2278 Rocket 3.9 00:24:57 10° NW 00:27:48 25° WNW 00:27:48 25° WNW
NOSS 3-1 (A) 4.5 00:29:36 38° WNW 00:30:16 39° NW 00:36:25 10° NNE
ATLAS 2AS CENTAUR R/B 3.4 00:32:49 53° ENE 00:32:49 53° ENE 00:39:11 10° NE
CZ-2C R/B 3.8 00:36:46 10° N 00:40:15 41° N 00:40:15 41° N
ATLAS 3B R/B 3.0 01:00:17 10° NNW 01:06:04 59° N 01:06:04 59° N
USA 238 DEB 4.0 01:17:01 10° NNW 01:23:52 64° NE 01:23:52 64° NE
USA 238 4.0 01:17:07 10° NNW 01:24:00 64° NE 01:24:00 64° NE
Cosmos 2369 Rocket 3.3 01:22:19 10° NNW 01:26:15 41° NNE 01:26:15 41° NNE
USA 215 3.6 01:34:27 10° NE 01:39:38 58° ENE 01:39:38 58° ENE
Cosmos 1943 Rocket 3.2 01:41:32 10° N 01:46:26 41° NE 01:46:26 41° NE
SL-16 R/B 4.1 01:46:54 21° NW 01:46:57 21° NW 01:51:13 10° N
ATLAS CENTAUR R/B 4.3 02:08:06 11° NNW 02:08:06 11° NNW 02:08:49 10° NNW
Cosmos 2181 Rocket 4.3 02:08:48 63° NNW 02:08:48 63° NNW 02:14:22 10° N
SL-16 R/B 4.3 02:06:35 15° ESE 02:10:19 25° ENE 02:15:11 10° N
Cosmos 2218 Rocket 4.2 02:05:16 10° N 02:10:48 67° NNE 02:10:48 67° NNE
USA 267 4.2 02:07:03 10° E 02:13:12 46° NNE 02:19:22 10° NW
Cosmos 2366 rocket 4.1 02:09:04 10° N 02:14:57 69° NE 02:14:57 69° NE
NOSS 3-4 (A) 3.8 02:22:20 58° E 02:22:20 58° E 02:28:01 10° NE
NOSS 3-4 (C) 3.8 02:22:26 57° E 02:22:26 57° E 02:28:07 10° NE
ATLAS 2AS CENTAUR R/B 4.1 02:20:12 30° WNW 02:22:45 37° NW 02:30:10 10° NNE
SL-8 Rocket 4.3 02:21:19 10° NNW 02:26:21 57° NW 02:26:21 57° NW
NOSS 3-2 (A) 3.9 02:29:05 10° NW 02:36:40 90° NW 02:38:59 52° SSE
Cosmos 1943 4.1 02:43:07 37° NW 02:43:07 37° NW 02:47:53 10° N
Cosmos 2112 Rocket 4.3 02:50:18 61° ENE 02:50:18 61° ENE 02:55:03 10° NNE
Aureole 1 Rocket 3.8 02:51:19 61° NE 02:51:19 61° NE 02:54:56 10° NNE
Nadezhda 3 Rocket 3.9 03:01:16 68° SSE 03:02:05 80° E 03:08:25 10° N
NPP 3.6 02:58:00 10° N 03:03:10 74° NW 03:03:10 74° NW
Lacrosse 5 rocket 3.1 03:05:58 28° ESE 03:05:58 28° ESE 03:09:18 10° ENE
Resurs 1-4 Rocket 2.6 03:02:39 10° NNE 03:07:46 50° E 03:08:31 47° SE
SL-08 R/B 4.1 03:12:21 41° NW 03:12:21 41° NW 03:15:39 10° NNW
Cosmos 2369 Rocket 4.4 03:07:20 10° NW 03:08:01 12° WNW 03:08:01 12° WNW
Spot 4 Rocket 4.1 03:07:49 10° NNE 03:12:58 66° ESE 03:13:23 63° SE
Cosmos 1805 4.3 03:10:19 10° N 03:13:40 43° ENE 03:13:40 43° ENE
Cosmos 1271 Rocket 4.1 03:10:50 10° N 03:14:12 34° ENE 03:14:12 34° ENE
CZ-2D R/B 2.3 03:12:47 10° NNE 03:18:03 61° E 03:18:55 53° SE
Cosmos 2056 Rocket 4.3 03:13:57 10° N 03:19:09 50° ENE 03:23:16 15° SE
Cosmos 1812 Rocket 4.4 03:16:53 10° NNW 03:19:57 42° NNW 03:19:57 42° NNW
Cosmos 921 Rocket 4.4 03:18:29 10° N 03:22:43 39° ENE 03:25:38 18° SE
Cosmos 1680 Rocket 3.7 03:23:12 55° WNW 03:23:12 55° WNW 03:28:23 10° N
USA 215 4.2 03:17:45 10° NE 03:23:42 39° NNW 03:26:58 24° WNW
CBERS-1 4.3 03:19:17 10° N 03:24:07 52° WNW 03:24:07 52° WNW
RESURS DK-1 2.9 03:25:43 55° N 03:25:43 55° N 03:29:06 10° NNE
Cosmos 1842 3.9 03:28:16 50° N 03:28:16 50° N 03:31:13 10° N
COSMOS 2455 2.7 03:21:37 10° NNW 03:27:37 74° WSW 03:29:08 51° S
ADEOS 3.5 03:25:00 10° NNE 03:30:14 80° ESE 03:31:11 60° S
Cosmos 1943 Rocket 3.8 03:25:41 10° NW 03:27:54 20° WNW 03:27:54 20° WNW
Meteor 1-4 Rocket 4.5 03:30:09 10° NNW 03:31:48 23° NNW 03:31:48 23° NNW
Cosmos 192 4.3 03:35:33 67° W 03:35:47 68° WNW 03:40:43 10° NNE
Cosmos 1953 Rocket 3.9 03:35:11 53° SE 03:35:51 61° E 03:40:15 10° NNE
COSMOS 2406 3.2 03:35:40 58° WSW 03:36:42 71° WNW 03:42:28 10° NNE
NOSS 2-2 (E) 3.7 03:36:50 60° SE 03:36:56 60° ESE 03:41:29 10° NE
IRS-1D 3.5 03:32:09 10° NNE 03:37:23 85° WNW 03:38:24 59° SSW
Meteor 2-8 Rocket 4.4 03:41:08 50° SW 03:42:33 64° W 03:48:40 10° N
SL-27 R/B 3.1 03:43:36 52° N 03:43:36 52° N 03:46:29 10° NNE
MOZ.5/SAFIR/RUBIN 5/SL-8 4.5 03:40:23 17° SE 03:43:51 53° ENE 03:48:24 10° N
NOSS 3-2 (C) 4.2 03:39:20 10° NW 03:46:32 46° WSW 03:50:12 29° SSW
ARIANE 5 R/B 2.5 03:43:21 10° N 03:48:34 72° WNW 03:49:48 52° SW
Cosmos 1821 Rocket 3.9 03:42:59 10° NNW 03:49:02 67° W 03:51:18 39° SSW
CZ-2D R/B 4.0 03:45:19 10° NNE 03:49:18 50° E 03:50:23 38° SSE
COBE Rocket 3.8 03:46:39 10° N 03:51:44 82° WNW 03:53:04 50° SSW
SL-16 R/B 2.6 03:51:39 40° SSW 03:53:32 54° W 03:59:35 10° NNW
Cosmos 1707 4.1 03:52:34 23° SE 03:54:20 36° E 03:57:55 10° NNE
Cosmos 1371 Rocket 4.0 03:49:36 10° NNW 03:54:54 61° WSW 03:56:34 41° SSW
USA 267 3.2 03:49:38 10° SSE 03:56:04 60° SW 04:02:31 10° NW
ADEOS Rocket 3.1 03:51:15 10° N 03:57:14 67° WNW 04:00:02 35° SW
CENTAUR R/B 3.1 03:49:43 10° NW 03:57:40 85° NE 04:06:08 10° SE
Cosmos 1825 Rocket 3.7 03:58:07 51° W 03:58:24 52° W 04:02:44 10° N
Cosmos 1470 3.1 03:57:40 10° N 04:01:33 62° E 04:03:45 24° SSE
Cosmos 1953 2.2 03:58:51 10° NNW 04:02:47 61° W 04:02:57 60° WSW
GEOS 3 Rocket 4.0 03:58:49 10° NNE 04:03:57 53° NW 04:05:55 35° WSW
Cosmos 1818 3.5 04:07:00 37° SSW 04:09:15 89° ESE 04:14:45 10° NNE
Cosmos 1605 Rocket 3.9 04:03:26 10° N 04:09:40 85° W 04:15:45 10° S
Cosmos 1934 Rocket 4.1 04:04:57 10° NNW 04:11:07 58° W 04:14:55 24° SSW
COSMOS 2487 3.5 04:09:56 26° SSE 04:11:23 41° ESE 04:14:46 10° NNE
NOSS 2-2 (D) 3.5 04:11:50 47° WSW 04:12:55 71° NW 04:17:33 10° NNE
Okean O Rocket 3.4 04:09:13 10° NE 04:13:05 29° E 04:16:54 10° SSE
ADEOS II 3.7 04:09:09 10° NNE 04:13:50 32° E 04:18:30 10° SSE
Cosmos 1378 4.3 04:11:26 16° SSE 04:14:01 40° E 04:17:33 10° NNE
UNKNOWN OBJECT B 2.9 04:11:02 10° N 04:15:00 64° WNW 04:16:05 44° SW
Cosmos 839 Rocket 4.2 04:08:58 10° NNW 04:15:20 88° ENE 04:22:52 10° SSE
Cosmos 1339 Rocket 4.5 04:10:43 17° S 04:15:33 80° E 04:21:40 10° N
Cosmos 1758 4.1 04:15:31 10° NNW 04:19:10 34° W 04:19:10 34° W
NOSS 2-2 (C) 4.0 04:29:42 30° WSW 04:31:22 47° NW 04:35:55 10° NNE
Tiangong 1 0.6 04:33:01 47° W 04:33:42 83° SSW 04:36:31 10° ESE
PSLV R/B 4.3 04:31:39 10° NNE 04:35:45 64° E 04:39:45 10° S
Cosmos 1733 3.6 04:36:00 10° NNW 04:39:35 41° W 04:41:23 24° SSW
Cosmos 2100 Rocket 4.2 04:34:35 10° N 04:40:48 72° E 04:46:55 10° SSE
Cosmos 2098 Rocket 2.6 04:38:41 10° NNW 04:41:26 35° W 04:41:44 34° WSW
Cosmos 1697 Rocket 3.8 04:37:29 10° NNW 04:42:54 47° ENE 04:48:16 10° SE
Lacrosse 5 rocket 2.3 04:41:41 22° W 04:44:23 45° NW 04:48:52 10° NE
MOS 1 Rocket 3.4 04:42:15 10° N 04:46:27 51° WNW 04:49:35 18° SW
Delta 2 Rocket 3.7 04:45:44 26° SW 04:46:38 30° S 04:49:37 10° ESE
Cosmos 389 Rocket 3.1 04:43:45 10° NNW 04:47:08 36° W 04:49:03 20° SSW
Resurs 1-4 Rocket 3.5 04:43:20 10° NNW 04:47:14 21° WNW 04:49:36 16° W
Cosmos 2278 3.6 04:41:30 10° NNW 04:47:14 80° WSW 04:52:56 10° SSE
USA 161 2.7 04:48:14 24° W 04:48:14 24° W 04:50:34 10° NW
Cosmos 2173 Rocket 4.2 04:41:48 10° N 04:48:07 75° E 04:54:18 10° SSE
Cosmos 1842 Rocket 3.5 04:46:03 10° N 04:50:29 90° W 04:54:55 10° S
Cosmos-2242 3.6 04:47:51 10° NNW 04:51:54 36° W 04:55:20 13° SSW
CZ-4B R/B 3.2 04:48:47 10° NNE 04:53:06 81° E 04:57:34 10° S
Cosmos 2369 3.7 04:49:00 10° NNW 04:54:44 71° WSW 05:00:25 10° SSE
CZ-2D R/B 3.7 04:54:06 10° NNW 04:57:36 18° WNW 05:00:15 13° W
Meteor 2-5 Rocket 3.9 04:52:46 10° SSW 04:58:16 60° WNW 05:04:02 10° N
PSLV R/B 3.9 04:54:12 10° NNE 04:58:34 69° E 05:02:52 10° S
EO 1 Del DPAF 3.9 04:55:40 10° SSE 04:59:27 60° ENE 05:03:16 10° N
Cosmos 921 Rocket 4.5 04:57:32 10° NW 05:00:42 19° W 05:02:20 16° WSW
Cosmos 2061 Rocket 4.0 04:59:09 10° N 05:05:25 86° W 05:11:37 10° S
Cosmos 2221 3.2 05:07:14 10° N 05:11:28 59° E 05:15:40 10° SSE
Cosmos 2082 Rocket 2.2 05:08:57 10° SSW 05:14:38 73° WNW 05:20:22 10° NNE
Cosmos 1833 Rocket 2.7 05:10:16 10° SSW 05:15:52 77° WNW 05:21:31 10° NNE
Cosmos 1980 Rocket 3.2 05:11:01 10° NNW 05:16:37 52° ENE 05:22:07 10° SE
DNEPR-1 R/B 4.1 05:13:08 10° NW 05:16:59 34° WSW 05:21:06 10° S
Meteor 2-1 Rocket 4.2 05:12:24 10° NNW 05:18:04 81° W 05:23:50 10° S
Cosmos 1656 3.6 05:14:51 10° NNW 05:20:13 62° WSW 05:25:32 10° S
Cosmos 158 Rocket 3.9 05:16:31 10° SSW 05:21:29 73° WNW 05:26:38 10° NNE
CZ-4B R/B 3.1 05:16:59 10° N 05:22:21 72° WNW 05:27:37 10° SSW
PAYLOAD B 4.3 05:16:56 10° N 05:22:28 66° WNW 05:27:57 10° SSW
Cosmos 2123 Rocket 4.3 05:18:08 10° S 05:24:25 77° E 05:30:43 10° N
Okean-O 3.8 05:20:16 10° NNE 05:24:33 45° E 05:28:47 10° S
Orbus 7S? 2.7 05:21:52 10° NW 05:24:43 47° SW 05:27:14 10° SSE
CZ-2C R/B 3.6 05:20:27 10° S 05:24:51 72° WSW 05:29:19 10° NNW
Cosmos 2016 Rocket 4.0 05:19:37 10° N 05:25:51 78° W 05:32:09 10° S
Meteor PRIRODA 3.8 05:24:47 10° NNE 05:28:30 80° E 05:32:12 10° S
EXPRESS MD2 2.7 05:25:13 10° WNW 05:29:31 66° SW 05:32:01 10° SE
Cosmos 972 Rocket 4.4 05:24:56 10° NNW 05:31:23 71° WSW 05:37:05 10° S
Meteor 1-31 Rocket 3.3 05:28:52 10° NNE 05:32:46 66° E 05:36:40 10° S
